Wind_Speed
29 30 30 31 32 33 34 34 35 35 36 36 37 37 38 39 41 42 42 43 45 46 48 49 49 50 50 51 51 51 52 52 53 53 53 54 54 55 55 56 56 57 58 58 59 59 59 60 60 60 60 59 59 60 60 60 61 62 62 63 64 64 65 66 66 67 67 68 69 70 70 71 72 72 73 73 74 74 75 75 76 76 76 77 77 77
30 30 31 31 32 33 34 35 35 36 37 38 39 39 40 41 43 44 44 46 47 48 49 50 50 52 52 52 52 52 53 53 53 53 54 54 54 55 55 56 56 57 57 58 58 59 59 59 59 58 58 58 59 59 59 60 61 61 62 62 63 63 64 65 66 66 67 68 69 70 71 72 73 73 73 74 74 75 75 76 76 76 76 77 77 78
31 31 32 33 33 34 35 36 36 37 39 40 41 41 42 44 45 46 47 48 49 51 51 51 52 53 54 54 54 54 54 54 54 54 54 54 54 55 55 56 56 56 57 57 58 58 58 58 58 58 58 59 59 59 60 60 61 62 62 63 63 64 65 66 66 67 68 69 70 71 71 72 73 73 73 74 74 74 74 74 75 75 75 76 76 77
33 33 34 35 36 36 37 38 38 39 40 42 43 44 45 46 47 49 49 49 51 52 53 53 54 55 55 54 54 54 55 55 55 55 54 54 55 55 55 55 56 56 57 57 57 58 58 58 59 59 60 60 61 61 61 62 62 63 63 64 64 65 65 66 66 67 68 68 69 69 69 70 70 70 71 71 71 71 72 72 73 73 74 74 75 76
33 34 35 37 37 38 39 40 41 42 43 44 45 46 47 46 47 47 47 48 49 49 50 51 53 53 53 52 52 53 53 54 53 54 54 54 54 54 54 55 56 56 57 57 58 58 59 59 60 60 61 61 61 61 61 61 61 61 62 62 62 62 63 63 63 64 64 65 65 65 65 66 66 67 67 68 68 69 70 71 71 72 74 75 75 77
34 36 37 38 40 41 42 42 43 43 43 43 43 43 43 43 43 44 43 44 45 46 46 48 50 51 51 51 51 51 51 51 51 52 51 51 50 51 53 54 55 55 56 56 56 57 57 58 58 58 58 59 59 59 59 59 60 60 60 60 60 61 61 61 61 62 62 63 63 63 64 64 64 65 66 68 69 70 71 72 73 74 75 76 77 78
37 38 39 40 40 41 41 40 40 39 39 39 38 38 38 39 40 40 40 41 42 43 44 45 46 48 50 51 50 50 50 49 49 48 46 47 48 49 51 52 52 53 53 54 55 55 56 56 57 57 58 58 58 59 59 60 60 60 61 61 61 61 62 62 62 63 63 63 64 65 65 66 67 67 68 69 71 72 73 74 75 76 77 78 79 80
38 37 37 37 36 36 36 36 36 36 35 35 35 35 36 36 37 38 39 39 40 41 41 42 44 46 49 50 49 49 49 47 46 45 45 47 48 49 50 51 51 52 53 54 54 55 56 57 57 58 58 59 59 60 60 61 61 61 62 63 63 64 64 65 65 66 66 67 68 68 69 70 71 71 72 72 73 74 75 76 76 77 78 79 80 80
35 34 33 33 33 33 33 33 33 34 34 34 34 34 35 35 36 37 38 38 39 40 40 40 42 43 45 47 49 49 49 48 47 46 45 46 48 49 50 51 51 52 52 53 53 54 54 55 56 56 57 57 58 58 59 59 60 60 61 62 63 63 64 65 65 66 67 67 68 69 69 70 71 71 72 73 73 73 74 75 76 76 77 78 79 79
32 32 31 31 31 31 31 31 32 32 33 33 33 33 33 33 34 34 35 35 36 38 38 37 36 37 38 41 46 48 48 49 49 47 45 45 45 45 46 47 48 48 48 49 49 49 50 51 52 52 53 53 54 54 55 55 56 57 57 58 59 60 61 62 62 63 64 65 66 66 67 68 69 69 70 71 72 72 73 74 74 75 76 77 77 78
29 30 29 29 30 30 30 30 30 30 31 32 32 32 32 32 32 32 33 34 35 36 35 33 31 33 37 41 44 47 47 47 47 47 46 45 45 45 45 46 46 46 46 47 47 48 49 50 51 51 52 53 53 54 55 56 56 57 58 59 60 61 61 62 63 64 65 66 67 68 69 69 70 71 72 73 73 74 75 75 76 77 78 79 79 80
26 27 27 27 27 28 28 29 29 29 29 29 29 29 29 29 29 30 31 33 34 35 34 33 33 36 40 41 42 43 44 44 45 46 47 47 47 47 47 47 47 47 48 49 49 50 51 52 53 53 54 55 56 56 57 58 59 60 61 62 63 64 64 65 67 68 69 69 70 71 72 73 74 74 75 76 77 78 78 79 80 80 81 82 82 83
26 25 25 25 25 25 24 24 24 23 24 25 25 26 28 29 29 30 33 34 34 35 35 36 37 38 39 38 38 40 41 44 45 46 47 47 47 47 48 48 49 49 50 51 51 52 53 54 54 55 56 57 57 58 59 60 61 62 63 63 64 65 66 67 68 69 70 71 72 73 74 75 76 77 78 79 79 80 81 81 82 83 83 84 85 85
24 22 22 22 22 22 22 22 22 23 25 27 28 31 33 34 35 36 38 39 38 38 38 38 38 38 38 38 39 42 43 45 47 47 47 48 48 50 51 51 51 52 52 53 53 54 55 56 57 58 59 60 60 61 62 63 64 65 66 67 67 68 69 70 71 71 72 73 74 75 76 77 78 78 79 80 81 82 83 84 84 85 86 86 87 88
20 20 21 21 21 22 23 24 26 27 29 31 32 34 35 37 38 39 41 43 44 45 44 43 42 42 42 42 42 44 45 46 46 47 48 49 50 51 52 52 53 54 54 55 56 57 57 58 59 60 61 62 63 64 64 66 67 68 69 70 70 71 72 73 73 74 75 76 77 78 78 79 80 80 81 82 83 84 85 86 87 87 88 89 89 90
22 23 23 22 23 25 26 27 28 29 30 32 33 34 35 37 38 39 41 44 47 48 47 47 47 46 45 43 42 42 44 44 46 47 49 50 51 52 53 53 54 55 56 57 57 58 59 60 61 61 62 64 65 65 66 67 68 69 71 72 72 73 74 75 76 76 77 78 79 80 80 81 82 83 83 84 85 86 87 87 88 89 90 91 91 92
24 24 24 24 25 27 28 28 29 30 32 33 33 34 35 37 38 40 42 44 47 49 48 48 49 48 46 44 41 41 42 44 45 46 48 49 50 51 52 53 54 55 57 58 59 60 61 61 62 62 63 65 66 66 67 68 69 70 71 72 73 74 74 75 76 77 78 79 80 81 81 82 83 84 84 85 86 87 88 89 89 90 91 92 93 93
25 25 26 27 28 29 29 30 31 32 33 34 34 35 36 37 39 41 42 44 46 48 49 48 49 50 48 45 43 42 42 43 44 45 46 48 49 51 52 53 55 56 57 59 60 61 63 64 65 65 66 67 68 69 69 70 70 71 72 73 74 74 75 76 77 78 79 80 81 81 82 83 84 85 85 86 87 88 89 90 90 91 92 93 94 94
26 27 27 29 30 30 31 32 33 33 34 35 35 36 36 37 39 40 42 45 47 49 50 50 49 50 48 46 45 44 43 44 45 46 48 49 51 52 53 54 56 57 58 60 61 62 64 65 66 67 68 69 69 70 71 71 72 72 73 74 75 75 76 77 78 79 79 80 81 82 83 83 84 85 85 86 87 87 88 88 89 89 90 90 91 91
27 28 29 30 30 30 31 32 33 34 34 35 35 35 36 37 39 40 42 44 46 49 52 52 52 51 49 47 46 46 45 46 47 49 51 52 53 54 55 56 56 57 58 59 60 61 62 64 65 66 67 68 68 69 70 70 71 71 72 73 73 74 74 75 76 76 77 77 78 78 79 79 80 80 81 81 82 82 82 83 83 83 83 83 84 84
28 29 30 30 30 30 31 32 32 33 35 36 36 35 36 37 38 40 42 43 46 48 50 53 54 52 49 48 48 47 47 48 48 50 51 52 53 54 55 56 56 57 58 58 59 60 61 62 63 64 65 66 67 67 68 68 69 69 70 70 70 70 71 71 71 72 72 73 73 73 74 74 74 75 75 75 76 76 76 77 77 77 77 77 78 78
29 29 29 29 29 30 30 31 32 32 34 36 38 37 37 38 39 40 42 43 45 47 48 51 53 52 50 49 49 48 48 48 49 50 50 51 52 53 54 55 56 57 58 58 59 60 60 61 62 63 64 65 65 65 66 66 66 67 67 67 67 67 68 68 68 68 69 69 69 70 70 70 70 71 71 71 72 72 73 73 74 74 75 75 75 76
29 29 29 30 30 31 32 33 33 34 34 34 36 38 38 39 40 41 42 43 44 45 47 50 52 52 51 50 50 49 48 48 49 50 51 52 53 54 56 57 58 59 59 59 60 61 61 62 62 63 63 63 64 64 65 65 65 65 66 66 66 66 66 66 66 66 67 67 67 68 68 69 69 70 70 70 71 71 71 72 72 73 74 75 76 77
30 30 32 32 32 32 33 34 34 35 36 36 37 39 39 40 41 42 43 44 46 47 48 51 53 52 52 52 51 50 49 49 50 50 52 53 55 56 58 59 60 61 61 61 62 62 62 63 63 63 63 63 63 63 63 64 64 64 65 65 65 65 65 65 65 65 65 66 66 67 68 68 69 70 70 70 71 71 72 72 73 74 76 77 79 81
33 34 35 35 34 34 34 35 35 36 37 38 38 39 40 41 42 43 44 45 46 47 48 50 53 52 51 52 52 51 51 51 52 52 54 55 56 58 60 61 61 62 62 62 62 62 63 63 63 63 63 62 62 62 62 62 62 62 63 63 63 63 64 64 64 64 65 65 66 66 67 68 68 69 70 70 71 72 73 74 75 77 79 80 82 84
35 36 37 37 37 37 36 36 37 37 37 38 38 39 40 41 41 42 43 44 45 46 46 48 52 52 50 51 53 53 52 53 53 54 55 56 57 57 59 61 61 61 62 61 61 61 62 62 62 62 62 62 61 61 61 60 61 61 61 61 62 62 62 63 63 64 64 65 65 66 66 67 67 68 69 70 71 73 74 75 77 79 80 82 83 84
37 37 38 38 38 38 37 37 37 37 37 37 37 38 39 40 40 41 43 44 44 45 45 46 51 52 50 49 51 52 52 53 53 54 55 56 57 57 59 60 61 62 63 62 61 61 61 61 61 61 61 61 61 61 61 60 60 60 60 60 60 61 61 61 62 63 63 64 64 64 65 66 66 68 69 70 71 73 74 76 77 78 80 81 83 84
38 39 39 39 39 39 38 38 37 37 37 37 37 38 38 39 40 41 43 44 45 46 46 46 49 52 51 50 51 52 52 52 53 53 54 56 56 57 59 60 61 62 62 62 62 61 61 61 62 62 62 62 62 61 61 60 60 60 59 59 60 60 60 61 61 61 62 62 63 64 64 65 66 68 69 70 71 72 73 75 76 78 79 80 81 81
39 40 40 40 40 40 38 38 38 37 37 37 38 38 38 39 41 41 42 45 45 46 47 47 49 51 52 52 52 53 53 53 53 54 55 55 56 57 58 59 61 62 62 62 62 61 61 61 62 63 63 63 62 62 61 60 60 59 59 59 59 59 59 60 60 61 61 62 63 64 64 65 66 67 68 69 70 72 73 75 76 77 77 77 77 76
40 41 42 42 42 41 40 39 39 39 38 38 38 38 39 40 42 41 42 45 46 47 47 49 50 52 53 54 54 55 55 55 54 54 54 55 56 57 59 59 61 61 62 62 62 62 62 62 62 63 64 64 63 62 60 59 59 58 58 58 58 58 58 59 60 61 62 62 63 64 64 65 66 67 68 69 70 72 73 74 74 73 73 72 72 72
42 42 43 44 44 43 43 42 41 40 39 39 39 40 41 42 42 42 42 45 48 48 48 49 51 52 54 55 55 56 56 56 55 55 55 55 56 57 58 59 60 61 61 61 61 62 62 62 63 64 65 65 64 62 61 59 58 57 57 57 57 58 58 59 60 61 61 62 62 63 63 64 65 66 68 69 70 71 71 71 70 69 68 68 69 69
43 44 44 45 45 45 45 45 43 42 41 40 40 42 42 42 42 42 44 46 49 49 49 50 51 53 55 56 57 57 58 58 57 57 56 56 56 58 59 59 61 61 61 61 61 62 62 62 63 64 66 67 66 64 61 59 58 57 57 57 57 58 59 59 60 60 61 61 61 61 62 63 64 66 67 68 69 68 67 66 65 65 66 66 65 64
45 46 46 46 46 46 45 45 44 43 42 42 42 42 42 42 43 43 44 45 48 50 51 51 52 53 55 56 57 58 58 59 58 58 57 56 57 58 59 60 61 61 62 62 62 62 63 63 64 65 67 68 67 65 63 61 59 58 57 57 57 58 59 59 59 59 59 60 60 61 62 63 65 66 67 67 65 64 63 63 63 64 63 61 60 60
46 47 48 48 47 47 46 45 45 44 43 43 43 42 43 44 45 44 44 45 48 49 50 51 52 53 54 55 57 58 59 59 59 59 58 57 57 58 59 60 61 61 62 63 63 63 63 64 64 65 67 68 68 67 64 62 60 59 58 58 58 59 59 59 59 59 59 59 60 61 62 64 65 66 65 64 62 61 61 62 62 61 59 57 57 58
47 48 49 49 48 48 47 47 46 45 44 43 43 43 44 45 46 45 43 44 48 49 49 51 52 53 54 55 56 58 59 59 59 59 58 56 57 57 58 59 61 62 63 63 64 64 64 64 64 65 66 68 69 67 65 63 61 59 58 58 58 59 59 58 58 58 59 60 60 62 63 64 65 65 63 61 60 60 61 61 59 57 55 55 56 54
49 49 50 50 49 49 49 48 47 46 44 44 44 45 45 45 46 46 43 44 49 51 50 51 52 53 54 55 56 58 59 59 60 60 59 57 56 57 58 60 61 62 63 64 64 64 64 65 65 65 66 68 69 68 66 63 61 59 58 58 58 58 58 58 58 58 59 59 60 62 63 64 64 63 60 59 59 59 60 59 56 54 52 53 53 49
49 49 51 50 49 50 50 48 48 47 46 46 46 46 46 46 47 48 46 45 48 51 51 52 52 53 55 55 56 58 60 60 60 61 61 58 58 58 59 60 61 62 63 64 65 66 66 66 67 67 67 68 70 69 67 65 62 60 58 57 57 57 58 58 58 58 58 59 61 62 63 64 63 60 58 57 58 58 58 56 53 50 50 51 49 45
49 49 50 50 49 50 50 50 50 49 48 48 48 47 47 47 48 50 49 47 48 51 52 52 53 54 55 56 57 58 61 62 61 62 62 61 59 59 60 61 62 63 64 66 67 67 67 67 68 68 68 69 70 70 68 65 63 61 59 57 57 58 58 58 58 58 59 60 61 62 63 63 61 58 56 56 57 57 55 53 50 48 49 49 46 41
48 49 49 49 49 50 51 50 50 50 49 49 49 49 49 49 49 51 51 50 50 51 53 53 54 54 55 56 57 59 61 63 62 63 64 63 61 61 61 62 63 64 65 66 67 68 68 68 69 69 69 70 71 71 69 66 63 61 59 58 58 58 58 58 58 58 59 60 61 62 63 62 59 56 55 56 56 55 53 51 48 46 47 47 43 38
48 48 48 48 49 50 51 50 50 50 50 50 49 49 50 50 50 52 53 52 52 52 54 55 55 55 56 57 58 59 61 63 63 63 63 63 62 62 62 62 63 64 65 66 67 68 69 69 69 70 70 70 71 71 70 66 63 61 59 58 58 58 58 58 59 59 59 60 61 62 62 61 57 55 55 55 55 54 52 49 47 45 45 45 42 37
48 48 48 48 48 49 50 51 51 49 49 50 50 50 51 51 50 51 53 54 53 53 55 56 56 56 57 58 59 59 60 62 63 62 62 62 61 61 61 62 63 64 65 66 67 68 69 69 70 70 70 71 72 72 70 67 63 60 58 57 57 58 58 59 59 59 59 60 61 62 61 60 56 54 54 55 54 52 50 48 46 44 44 43 40 35
48 48 48 48 49 49 50 51 52 51 49 50 51 51 51 51 51 52 52 54 54 54 55 57 57 57 57 58 59 59 60 61 62 62 62 62 61 60 60 61 62 64 65 66 67 68 69 69 70 70 70 71 72 72 70 67 63 60 58 57 57 57 58 59 59 59 59 60 61 61 60 58 55 54 54 54 54 51 48 46 45 44 43 42 39 35
47 48 49 48 49 50 50 51 52 53 52 51 51 51 51 52 52 52 53 54 54 55 55 56 57 58 58 58 59 59 60 61 62 62 62 62 61 61 60 61 62 63 65 66 67 68 69 70 70 70 71 72 73 73 71 67 64 60 58 57 56 57 58 58 59 59 59 60 60 60 60 57 54 53 53 53 53 50 47 45 44 43 43 42 39 34
47 48 49 49 49 49 49 50 51 52 53 53 51 50 51 52 52 52 53 54 55 55 55 56 57 58 58 59 59 60 60 62 62 63 63 63 62 61 61 61 62 63 64 66 67 68 69 70 70 71 71 73 73 73 71 68 64 61 58 57 57 57 58 58 59 59 59 59 59 60 59 57 54 53 53 53 52 50 47 44 43 42 42 42 40 35
47 47 48 49 49 48 48 49 50 50 51 53 52 50 51 52 52 53 53 54 55 56 56 57 58 58 59 59 60 60 61 62 63 63 64 64 63 62 61 61 62 62 64 65 66 67 69 70 70 71 72 73 74 73 71 68 64 61 59 57 57 57 58 58 58 58 58 58 59 59 58 56 54 52 52 52 51 49 46 43 42 42 41 41 40 35
47 47 48 49 50 49 47 48 50 50 50 52 52 51 51 52 52 52 53 54 55 56 57 57 58 59 59 59 60 60 61 63 64 64 64 65 64 63 62 62 62 62 63 64 66 67 68 69 70 71 72 73 74 72 70 68 65 62 59 57 57 57 58 58 58 58 58 58 58 58 57 56 53 51 51 51 51 49 47 44 42 41 41 41 40 37
48 48 49 49 50 50 49 49 51 51 50 51 52 51 52 52 52 52 53 53 55 56 56 57 58 59 60 60 60 61 62 63 64 64 65 65 65 64 63 63 62 63 64 64 66 67 68 68 69 70 72 73 73 71 69 67 65 62 59 58 57 58 58 58 58 58 57 57 57 57 57 55 53 50 49 49 49 49 47 45 43 41 41 41 40 38
49 49 50 50 50 50 51 51 51 51 51 52 53 52 52 53 52 52 53 53 54 55 56 57 58 59 60 60 60 61 62 63 64 65 65 65 65 64 64 63 63 63 64 65 66 66 67 68 69 71 72 73 72 70 68 66 64 62 60 58 58 58 58 58 58 57 57 56 56 56 56 55 53 50 48 48 48 48 47 46 43 42 41 41 41 39
50 50 51 51 51 51 51 52 53 52 52 53 54 53 53 53 53 53 53 54 55 56 57 57 58 59 60 60 60 61 62 63 64 65 66 66 65 64 64 64 64 64 64 65 66 66 67 68 70 71 73 73 71 69 67 65 63 62 60 59 58 58 58 58 58 57 57 56 55 55 55 54 53 50 48 47 46 47 47 46 44 42 41 41 41 41
51 51 51 52 52 52 52 53 54 54 54 54 54 53 53 53 53 53 53 54 55 56 57 57 58 59 60 60 60 60 61 63 64 66 66 66 65 65 65 65 64 64 64 65 65 66 67 69 70 72 73 72 71 68 66 64 63 61 60 60 59 58 58 57 57 57 56 56 55 54 54 54 52 50 48 46 45 45 45 46 46 44 41 40 40 41
51 51 52 52 53 52 53 54 54 55 55 55 54 53 53 53 53 53 53 54 55 56 57 58 58 59 60 61 61 61 62 63 64 66 66 66 66 65 65 65 65 64 64 65 65 65 67 69 71 73 73 72 70 68 66 64 63 61 60 60 59 59 58 57 57 56 56 55 54 54 53 53 52 50 48 46 45 43 42 42 43 44 43 42 40 40
Wind_Direction
290 290 290 289 289 290 290 290 290 290 289 289 289 289 289 288 287 287 288 288 288 287 287 287 287 287 286 286 286 286 285 285 284 284 284 283 282 282 281 281 280 279 279 278 278 277 277 276 276 276 275 275 274 273 273 272 272 272 271 271 271 270 270 270 270 270 270 270 270 270 270 270 270 270 271 271 271 271 271 271 271 271 271 270 270 270
291 291 291 290 290 290 290 290 291 291 291 291 290 290 290 289 288 288 288 288 288 287 287 287 287 286 286 286 286 286 285 285 285 285 284 283 283 282 281 281 280 279 279 278 278 277 277 277 276 276 275 274 273 273 272 272 271 271 271 270 270 270 270 270 270 270 270 270 270 270 270 270 270 270 270 270 270 270 270 270 270 270 270 270 269 269
292 291 291 291 291 291 291 291 292 292 292 291 290 290 290 289 289 289 288 288 288 287 287 287 286 285 285 285 285 285 285 285 284 284 283 283 283 282 281 280 280 279 279 278 278 277 277 276 276 275 274 273 273 272 272 271 271 271 271 270 270 270 270 270 270 270 270 270 270 270 270 270 270 270 270 270 270 270 270 270 269 269 269 268 268 268
295 294 294 294 293 293 293 292 292 292 292 291 291 290 289 290 289 289 289 288 287 288 288 287 285 285 285 285 285 285 284 284 284 284 283 283 282 282 282 281 281 280 279 278 278 277 276 276 275 275 274 274 273 273 273 272 272 272 271 271 271 271 270 270 270 270 270 270 270 270 270 270 270 269 269 269 269 269 269 269 268 268 268 268 267 267
296 296 296 295 295 294 294 293 293 292 292 291 291 291 290 290 290 290 290 289 288 289 289 288 287 286 286 285 285 284 284 284 284 284 283 283 283 283 283 282 281 280 279 279 278 277 277 276 276 275 275 275 275 274 274 274 273 273 273 272 272 271 271 270 270 270 270 269 269 269 269 269 269 268 268 268 267 267 267 267 267 267 267 267 266 266
296 296 296 296 295 295 294 294 293 293 293 293 292 292 292 292 292 292 292 292 292 291 290 291 291 291 288 286 286 286 285 286 286 285 286 286 286 284 283 282 281 281 280 280 279 278 278 277 277 277 276 276 275 275 274 274 274 273 273 272 272 271 270 270 269 269 268 268 267 267 267 267 267 267 267 266 266 265 265 265 266 266 266 266 266 266
298 298 297 297 297 297 297 297 297 297 297 297 297 296 296 296 296 296 295 295 295 294 294 294 295 294 292 289 289 289 288 288 288 289 290 289 287 285 284 283 282 282 281 281 280 280 279 279 278 278 277 276 276 275 274 274 273 273 272 272 271 270 270 269 268 268 267 267 266 266 266 266 266 266 266 266 266 266 266 266 266 267 267 267 267 267
300 301 301 302 302 302 303 302 302 301 301 300 300 299 299 299 298 298 298 298 298 298 298 297 296 296 295 293 291 291 291 293 294 295 294 291 289 287 286 285 284 284 283 282 282 281 281 280 279 279 278 278 277 276 276 275 274 273 273 272 271 271 270 269 269 269 268 268 267 267 267 267 267 267 267 267 267 268 268 268 269 269 269 270 270 270
306 307 307 307 307 306 306 305 304 304 303 302 302 302 303 303 303 304 303 303 303 302 301 302 301 301 300 298 297 296 297 299 299 299 297 294 292 290 289 288 287 286 285 285 284 283 283 282 281 280 280 279 279 278 277 277 276 275 275 274 273 273 273 272 272 271 271 271 270 270 270 270 270 270 270 270 270 270 271 271 271 271 272 272 272 272
311 311 310 309 309 308 307 307 308 308 308 308 308 308 308 308 307 307 306 306 307 307 309 311 311 309 304 302 303 303 303 302 300 299 298 296 295 294 292 291 290 290 289 288 287 286 285 284 283 282 281 281 280 280 280 279 279 278 277 277 277 276 276 275 275 275 274 274 273 273 273 273 273 273 273 273 272 273 273 273 273 273 273 273 273 273
312 313 313 313 313 313 314 314 314 314 314 313 312 311 311 310 311 311 312 313 314 315 316 316 312 305 300 300 302 302 302 301 300 298 298 298 298 297 296 295 294 292 291 290 290 288 287 287 286 285 285 284 283 283 283 282 281 281 280 279 279 278 278 278 277 277 277 276 276 276 276 275 275 275 275 275 275 274 274 274 274 274 274 273 273 273
316 316 317 318 318 320 320 320 320 320 320 320 319 320 320 321 325 326 328 329 327 325 322 316 308 302 300 302 303 302 302 301 300 300 300 300 300 299 299 298 297 296 295 294 293 292 291 290 289 289 288 287 287 286 286 285 284 284 283 282 281 281 280 280 279 279 279 278 278 278 277 277 277 276 276 276 276 275 275 275 275 275 275 274 274 274
322 322 323 324 325 327 328 330 333 334 336 337 338 338 338 339 342 343 343 342 338 334 329 322 315 309 307 308 307 306 305 304 304 304 304 303 302 302 302 302 301 300 298 297 296 295 294 293 292 292 291 290 289 288 288 287 286 286 285 284 283 283 282 282 281 281 280 280 280 279 279 278 278 278 278 277 277 277 276 276 276 276 275 275 275 275
331 334 339 343 344 347 349 349 349 350 350 349 348 349 349 348 350 349 348 345 342 340 336 330 325 319 315 313 311 308 307 306 306 305 305 304 303 304 303 303 302 301 300 299 298 297 296 296 295 294 293 292 291 290 289 288 288 287 286 285 284 284 283 283 282 282 282 281 281 280 280 280 279 279 279 279 278 278 278 277 277 277 276 276 276 276
356 1 6 5 1 1 0 357 355 353 352 352 352 353 352 351 351 350 348 346 344 344 341 338 334 328 322 319 315 312 310 308 307 306 305 305 304 304 304 304 303 303 301 300 299 298 297 296 295 294 294 292 291 290 290 289 288 287 287 286 285 284 284 283 283 282 282 282 281 281 281 280 280 279 279 279 279 279 278 278 278 278 277 277 277 276
14 14 10 5 2 2 1 358 358 356 354 354 354 352 350 350 350 348 347 347 346 345 344 340 336 331 326 323 319 314 311 309 308 308 307 307 307 307 306 306 305 304 303 302 301 300 299 297 296 295 294 293 292 291 290 289 289 288 287 286 286 285 284 284 284 283 283 282 282 282 281 281 281 280 280 280 280 280 279 279 279 279 278 278 278 277
14 11 6 3 5 4 2 1 360 357 356 355 353 350 349 349 347 345 346 347 346 345 344 340 336 333 330 327 322 317 313 312 310 310 309 309 308 308 307 306 305 305 304 303 302 301 299 298 297 296 295 294 292 291 291 290 289 288 288 287 286 286 285 285 284 284 283 283 283 282 282 282 282 281 281 281 281 280 280 280 280 279 279 279 279 278
13 11 7 7 8 6 4 3 1 358 357 354 351 349 348 347 345 344 345 346 345 345 345 342 337 335 333 329 325 321 317 314 312 311 310 309 309 308 307 306 305 304 303 302 301 300 299 297 296 295 294 294 293 292 291 291 290 289 288 288 287 287 286 286 285 285 285 284 284 284 284 283 283 283 282 282 282 281 281 281 280 280 280 280 279 279
13 12 10 9 9 6 3 2 0 358 355 352 350 348 346 344 343 343 343 343 344 344 345 343 340 337 335 331 327 323 320 318 317 315 314 314 313 312 310 309 308 307 306 304 303 302 300 299 298 297 296 295 294 293 293 292 291 290 290 289 289 289 288 288 287 287 286 286 286 285 285 284 284 284 283 283 283 282 282 282 282 281 281 281 281 281
10 8 7 7 6 4 2 0 359 357 354 352 350 347 344 343 342 342 342 342 343 344 343 343 342 340 337 332 328 326 324 323 322 321 319 319 318 317 316 315 314 313 311 309 307 306 305 304 302 301 300 298 297 297 296 295 294 293 292 292 291 290 290 289 289 288 288 287 287 287 286 286 286 286 285 285 285 285 285 284 284 284 283 283 283 282
5 4 4 3 0 360 360 359 358 356 353 351 351 348 345 343 342 340 341 341 343 344 342 341 342 342 338 334 331 328 327 327 326 324 324 324 323 322 322 320 319 318 316 315 313 311 310 308 306 305 304 302 301 300 299 298 296 295 294 293 293 292 291 291 291 290 290 290 290 289 289 289 288 288 288 288 287 287 287 287 286 286 285 285 285 284
2 0 360 358 356 355 356 356 356 356 354 351 349 348 346 344 342 340 340 341 341 343 341 339 342 344 340 336 333 329 329 328 327 326 326 326 326 325 324 323 323 322 321 320 318 316 315 312 310 309 307 306 304 303 301 299 298 297 296 296 295 295 294 294 294 293 293 293 292 292 291 291 290 290 290 289 289 289 289 289 288 288 287 287 286 286
1 358 356 355 353 353 352 353 353 353 353 351 348 347 346 344 342 340 339 339 340 342 341 339 342 344 341 337 334 332 330 327 326 326 326 326 326 326 326 326 326 326 325 324 323 321 319 316 314 312 310 309 307 305 304 302 301 300 299 298 298 297 297 296 296 295 295 294 294 294 293 293 292 292 292 291 291 291 291 290 290 289 289 288 288 287
0 358 356 354 353 352 351 350 350 349 351 352 349 348 346 344 342 339 338 339 340 341 342 340 342 344 341 338 336 333 331 328 327 327 327 327 328 329 329 330 329 329 328 328 326 324 322 319 317 315 313 312 310 309 307 304 303 301 300 299 299 298 298 297 297 296 296 296 295 295 294 294 294 293 293 292 292 292 291 291 291 290 290 290 289 289
0 358 357 354 352 351 349 348 348 347 348 350 350 348 346 344 342 338 338 339 339 341 342 340 341 343 340 338 336 335 332 330 329 329 329 330 331 331 331 331 331 330 329 328 327 325 324 322 320 318 316 315 313 312 310 307 305 303 302 301 300 299 299 298 298 297 296 296 296 296 295 295 294 294 293 293 292 292 292 292 292 291 291 291 291 290
0 358 356 354 352 350 348 347 346 345 345 346 347 347 345 343 340 337 337 338 338 340 341 338 339 343 341 336 335 334 333 332 331 331 331 331 332 331 330 330 331 330 329 329 328 327 326 324 323 320 318 317 315 314 312 310 308 306 304 303 302 301 300 299 299 298 297 297 297 297 296 296 295 295 294 294 294 293 293 293 293 293 293 293 292 292
359 357 355 354 352 349 346 345 344 342 342 343 344 345 344 341 339 337 336 336 336 339 341 338 338 342 342 338 335 334 333 332 331 331 330 330 331 331 330 330 331 330 330 330 330 328 328 327 326 325 322 320 317 316 314 313 311 308 306 305 303 302 301 301 300 300 299 299 298 298 298 298 297 297 296 296 296 296 296 295 295 295 295 294 294 293
357 355 354 353 351 348 346 344 341 340 340 340 341 343 342 339 340 339 336 334 334 337 340 339 338 340 342 340 337 335 333 332 331 330 330 330 331 330 330 330 331 331 331 331 331 330 330 330 330 329 327 324 321 318 316 314 312 310 308 306 305 304 303 303 302 302 301 301 300 300 300 300 299 299 299 298 298 298 297 297 297 296 296 296 295 295
353 353 352 351 349 347 345 342 340 339 338 338 339 340 340 340 341 340 335 333 334 336 338 339 338 339 341 341 339 337 335 333 332 331 330 331 330 330 330 331 331 332 332 332 332 331 331 332 332 332 331 328 324 321 317 315 313 311 310 308 307 307 306 305 304 304 303 303 303 303 303 302 302 301 301 301 300 300 300 299 299 299 298 298 297 296
350 349 349 349 347 346 344 343 342 340 338 338 337 337 339 342 342 339 335 333 334 336 337 337 338 339 341 341 341 339 337 336 334 332 331 331 330 330 330 331 332 333 333 333 333 332 332 333 333 334 334 331 328 324 320 317 314 313 311 310 310 309 308 308 307 307 306 306 305 305 305 305 304 304 303 303 303 303 302 302 301 301 300 300 299 299
347 347 347 346 346 344 343 344 343 340 339 337 335 337 340 342 341 339 337 335 335 336 337 336 337 338 339 341 341 340 339 337 335 333 332 332 331 331 331 332 333 334 334 334 334 333 333 333 334 335 336 334 332 328 324 320 317 315 313 312 312 311 310 310 309 309 308 308 307 307 307 306 306 306 306 306 306 305 305 304 303 303 303 303 302 302
345 344 344 344 344 343 343 343 342 341 339 337 337 339 339 339 339 340 339 336 335 337 337 336 336 337 338 340 341 341 340 339 337 334 334 333 332 331 332 333 334 335 335 335 335 334 334 334 334 336 337 337 335 331 327 323 319 316 315 314 314 313 312 312 311 311 310 310 309 309 309 309 309 309 309 309 308 308 307 306 306 306 306 306 305 304
342 342 342 341 342 343 342 341 341 340 339 337 338 338 336 336 339 342 341 337 335 336 337 336 336 336 337 338 339 340 340 340 338 336 335 334 333 332 333 333 334 335 335 335 335 336 336 335 335 337 338 338 337 334 330 326 322 319 317 317 316 316 315 314 314 313 313 312 312 312 312 312 312 312 312 311 310 309 309 309 309 309 308 307 307 307
340 340 340 340 340 341 341 340 340 340 340 339 338 336 335 337 339 342 343 339 336 336 336 335 335 336 336 337 338 339 340 340 339 337 336 335 333 333 333 333 334 335 336 336 337 337 337 337 336 337 338 339 338 336 332 328 325 322 320 319 319 318 318 317 317 316 316 315 315 315 315 315 315 315 314 313 312 311 311 312 311 311 310 310 310 310
338 338 338 338 339 339 340 340 339 340 340 338 336 335 336 338 338 340 343 340 336 337 336 335 335 336 336 337 337 338 340 340 339 338 337 335 333 333 333 333 334 335 336 337 337 337 337 337 337 337 338 339 339 337 333 330 326 324 322 321 321 321 320 320 319 318 318 318 318 318 318 318 318 317 316 314 314 314 314 313 313 312 312 313 313 312
336 336 337 337 338 338 339 339 339 339 339 337 336 336 337 337 336 338 342 341 338 338 338 336 336 336 336 336 337 337 339 340 339 339 338 336 334 334 333 333 334 335 336 337 338 338 338 338 338 338 339 339 339 337 335 331 328 326 324 323 323 322 322 321 320 320 320 320 320 320 320 320 320 318 316 315 315 316 315 315 314 313 314 315 315 312
335 335 336 337 337 337 338 338 337 338 338 337 337 337 336 336 336 337 340 341 339 339 339 337 336 336 337 337 337 337 339 340 339 339 339 337 335 335 334 334 335 335 336 337 338 338 338 338 339 339 339 340 340 338 336 333 330 328 326 325 324 324 323 323 322 322 322 321 322 322 322 322 321 319 317 316 317 317 316 315 315 315 316 317 316 312
335 335 335 336 336 336 336 337 337 338 339 338 337 337 336 336 336 336 338 340 339 339 339 338 337 337 337 338 338 338 339 340 340 339 339 339 337 335 335 334 335 335 336 337 338 339 338 338 339 339 339 340 340 339 337 334 331 329 327 326 326 325 325 325 325 324 324 324 324 324 324 324 322 319 318 318 319 319 318 317 316 317 318 319 317 313
334 334 335 335 335 335 335 336 336 337 338 338 337 336 336 337 337 336 337 338 339 339 339 339 338 338 338 338 339 339 339 341 341 339 339 339 337 336 335 335 335 335 336 336 337 338 338 338 339 339 339 340 340 339 337 335 332 330 329 328 328 327 327 327 326 326 326 326 326 326 326 325 322 320 320 320 321 321 319 318 318 318 320 321 319 315
336 335 335 335 335 334 335 335 336 336 337 337 337 336 336 337 337 337 337 338 338 339 340 340 339 339 339 339 340 340 339 340 341 340 339 338 337 336 335 334 334 334 335 335 336 337 338 338 338 339 339 340 340 340 338 336 333 331 330 329 329 328 328 328 328 328 328 328 328 328 327 326 323 322 322 323 323 323 321 319 319 320 322 323 321 317
337 337 336 336 335 335 335 334 335 337 336 336 336 336 336 336 337 337 337 338 338 338 340 340 340 340 340 340 341 341 340 340 340 340 339 338 337 335 334 334 333 333 334 334 335 336 337 337 338 338 339 340 340 340 338 337 334 332 331 330 330 329 329 330 330 329 329 329 329 329 329 327 324 323 323 325 325 324 322 320 320 320 323 326 324 320
339 339 338 337 336 336 336 335 335 337 337 335 336 335 335 336 337 337 338 338 338 339 339 340 340 340 340 340 341 341 340 340 340 340 339 338 336 335 334 333 333 332 333 334 334 335 336 337 338 338 339 340 340 340 339 337 335 333 332 331 330 331 331 331 331 331 331 330 330 330 330 328 325 324 325 326 327 326 324 321 320 321 324 328 327 322
340 340 340 339 338 337 337 335 335 336 336 335 335 335 335 335 336 337 337 337 338 338 339 340 340 340 340 341 341 341 341 340 340 340 339 338 337 336 334 333 332 332 332 333 334 335 336 337 337 338 339 339 340 340 339 338 336 334 333 332 332 332 332 332 332 332 332 331 331 331 331 329 327 326 327 328 328 327 325 323 322 322 325 329 330 325
342 341 340 339 338 338 337 334 334 335 334 334 335 334 333 334 335 335 336 337 337 338 339 340 341 340 340 341 341 341 341 341 341 340 340 339 338 337 335 334 333 332 333 333 334 335 336 337 337 338 339 339 340 340 339 338 337 335 334 333 333 333 333 333 333 333 333 332 332 332 333 331 328 327 328 329 329 329 327 325 323 323 325 329 331 327
344 343 342 341 340 340 338 334 333 333 332 332 334 334 332 333 334 335 336 337 338 339 339 340 341 341 340 341 341 342 341 341 341 341 340 340 339 338 336 335 334 333 333 334 334 335 336 337 338 338 339 339 339 339 339 338 337 336 335 334 334 334 334 334 334 334 333 333 333 334 334 332 329 328 328 330 330 330 329 327 325 324 325 328 331 329
345 344 344 343 342 342 340 336 334 334 332 331 333 333 332 333 333 334 335 336 337 338 339 339 340 341 341 341 341 342 342 342 342 342 341 340 340 339 337 336 335 334 334 334 335 335 337 337 338 338 339 339 339 339 339 338 338 337 335 334 334 335 335 335 335 334 334 334 334 335 335 334 331 329 329 331 332 331 331 330 327 325 324 327 331 331
346 344 344 345 344 344 342 339 337 336 334 332 333 333 332 332 333 333 334 335 336 337 338 339 340 340 341 341 341 342 342 342 342 342 341 341 341 340 338 337 336 335 335 335 335 336 337 338 338 339 339 339 339 339 339 338 338 337 336 335 335 335 336 335 335 335 335 335 335 335 335 335 333 330 330 331 333 333 332 331 330 327 325 325 329 332
345 345 345 346 346 345 343 341 340 338 335 334 334 334 333 332 332 332 333 334 335 336 338 339 339 340 341 341 341 342 342 342 342 342 342 341 341 340 339 338 337 336 336 336 337 337 338 338 339 339 339 339 339 339 339 338 338 337 336 336 336 336 336 336 336 336 336 336 336 336 336 336 334 332 330 331 333 334 333 332 331 329 327 326 327 331
344 344 344 345 346 346 344 343 342 341 339 336 336 335 333 332 332 332 333 334 335 336 337 338 339 340 340 341 341 342 342 342 342 343 342 342 342 341 340 339 339 338 337 337 338 338 339 339 339 339 339 339 340 340 339 339 338 337 336 336 336 336 336 336 336 336 337 337 337 337 337 337 335 333 331 331 334 335 334 333 332 331 329 327 327 330
343 344 344 344 345 346 344 343 343 342 340 338 337 335 333 332 331 331 332 333 334 335 336 338 338 339 340 341 341 342 342 342 343 343 343 342 342 342 341 341 340 339 339 339 339 339 340 340 340 340 340 340 340 340 340 339 338 337 337 336 336 337 337 337 337 337 337 337 337 337 337 337 336 334 332 332 333 336 336 335 333 331 330 329 328 330
343 344 343 343 345 345 344 343 342 341 340 339 337 335 333 332 331 331 331 333 334 334 335 337 338 339 340 341 341 342 342 343 343 343 343 343 343 342 342 342 341 340 340 340 340 340 341 341 341 340 340 340 341 341 340 339 339 338 337 337 336 337 337 337 337 338 338 338 338 337 338 338 337 335 333 332 333 335 337 337 335 333 331 331 330 330
Height
5726 5724 5723 5721 5719 5718 5716 5714 5713 5712 5710 5709 5707 5705 5704 5701 5699 5698 5697 5693 5691 5688 5686 5686 5684 5681 5679 5677 5676 5674 5671 5670 5668 5666 5665 5662 5659 5657 5655 5653 5651 5649 5647 5645 5644 5642 5640 5638 5637 5635 5633 5631 5629 5627 5625 5623 5621 5620 5618 5616 5614 5612 5611 5609 5607 5605 5603 5602 5600 5598 5597 5595 5594 5594 5592 5590 5590 5587 5586 5586 5585 5583 5582 5581 5581 5580
5722 5721 5719 5718 5716 5714 5713 5711 5710 5708 5706 5704 5703 5701 5699 5696 5694 5694 5692 5689 5686 5683 5681 5680 5678 5675 5673 5671 5670 5668 5665 5663 5662 5660 5658 5655 5652 5650 5648 5646 5644 5642 5640 5638 5636 5634 5633 5631 5629 5627 5625 5623 5621 5619 5617 5615 5613 5611 5609 5607 5605 5603 5602 5600 5598 5596 5594 5593 5591 5589 5588 5586 5584 5584 5583 5581 5580 5578 5576 5576 5575 5573 5572 5571 5570 5570
5719 5718 5715 5714 5713 5710 5709 5708 5707 5704 5702 5700 5698 5697 5694 5691 5690 5688 5687 5684 5680 5677 5676 5675 5672 5669 5668 5666 5663 5662 5659 5657 5655 5653 5651 5648 5646 5643 5641 5639 5637 5635 5633 5631 5629 5627 5625 5623 5621 5619 5617 5615 5613 5611 5609 5607 5605 5603 5601 5599 5597 5595 5593 5591 5590 5588 5586 5584 5582 5580 5578 5577 5575 5574 5573 5572 5570 5568 5567 5565 5564 5563 5562 5561 5559 5559
5714 5713 5711 5710 5708 5706 5705 5704 5703 5700 5697 5695 5694 5692 5689 5687 5684 5682 5681 5679 5674 5672 5670 5667 5665 5663 5662 5660 5658 5656 5653 5650 5648 5646 5644 5642 5639 5636 5634 5632 5630 5628 5626 5624 5621 5619 5617 5615 5613 5611 5609 5607 5605 5603 5601 5599 5597 5595 5593 5591 5589 5587 5585 5583 5581 5579 5577 5575 5573 5571 5569 5568 5566 5564 5563 5561 5560 5558 5556 5555 5553 5552 5551 5550 5548 5548
5711 5710 5708 5706 5704 5702 5701 5699 5698 5696 5693 5690 5689 5686 5684 5682 5679 5677 5675 5672 5669 5667 5664 5660 5658 5656 5655 5653 5652 5651 5647 5644 5642 5640 5637 5635 5633 5630 5627 5625 5623 5620 5618 5616 5614 5611 5609 5607 5605 5603 5601 5599 5597 5595 5593 5591 5589 5587 5584 5582 5580 5578 5576 5574 5572 5570 5568 5566 5564 5562 5560 5558 5556 5554 5553 5551 5549 5547 5546 5544 5543 5541 5539 5538 5537 5536
5708 5706 5704 5702 5700 5698 5696 5695 5692 5691 5688 5685 5684 5681 5679 5676 5674 5672 5670 5667 5664 5662 5660 5656 5651 5648 5647 5647 5646 5645 5642 5639 5637 5634 5632 5629 5626 5623 5620 5618 5616 5613 5611 5609 5606 5604 5602 5600 5598 5595 5593 5591 5589 5587 5585 5582 5580 5578 5576 5573 5571 5569 5567 5565 5562 5560 5558 5556 5554 5552 5550 5548 5545 5544 5542 5540 5539 5537 5535 5534 5532 5531 5529 5527 5526 5526
5704 5702 5700 5698 5696 5693 5691 5689 5687 5686 5684 5681 5679 5677 5675 5672 5669 5667 5665 5663 5659 5657 5655 5652 5647 5642 5639 5640 5640 5638 5635 5634 5632 5629 5627 5623 5619 5616 5614 5611 5609 5607 5604 5602 5599 5597 5594 5592 5590 5588 5585 5583 5581 5579 5576 5574 5571 5569 5566 5564 5562 5559 5557 5555 5552 5550 5548 5546 5544 5541 5540 5538 5535 5534 5532 5530 5528 5526 5525 5524 5522 5520 5519 5517 5516 5515
5700 5698 5696 5693 5691 5689 5687 5685 5683 5681 5679 5677 5675 5673 5671 5668 5666 5663 5661 5659 5656 5653 5651 5648 5643 5638 5633 5632 5634 5632 5629 5628 5626 5624 5620 5616 5612 5609 5607 5605 5602 5600 5598 5595 5592 5590 5587 5585 5582 5580 5577 5575 5573 5570 5568 5565 5563 5560 5558 5555 5553 5551 5548 5546 5543 5541 5539 5537 5534 5532 5530 5528 5526 5524 5523 5521 5519 5517 5515 5514 5513 5511 5509 5507 5506 5505
5696 5694 5692 5690 5687 5685 5683 5681 5679 5677 5675 5673 5671 5669 5667 5665 5662 5660 5657 5655 5652 5649 5647 5643 5639 5635 5629 5627 5628 5626 5623 5621 5619 5617 5613 5609 5606 5603 5600 5598 5596 5593 5590 5588 5585 5582 5580 5577 5575 5572 5570 5568 5565 5562 5560 5557 5555 5553 5550 5547 5545 5543 5540 5538 5535 5533 5531 5528 5526 5524 5522 5520 5518 5515 5514 5512 5511 5509 5507 5505 5503 5502 5500 5498 5496 5495
5692 5690 5688 5686 5684 5682 5680 5678 5675 5674 5671 5669 5667 5666 5664 5661 5660 5657 5654 5652 5649 5645 5643 5640 5636 5631 5626 5623 5622 5621 5618 5614 5612 5610 5607 5604 5600 5597 5595 5592 5590 5587 5584 5581 5579 5576 5573 5570 5568 5565 5563 5561 5558 5555 5553 5550 5547 5545 5543 5540 5537 5535 5532 5529 5527 5524 5522 5519 5517 5515 5513 5511 5509 5507 5505 5503 5501 5499 5497 5496 5494 5492 5490 5488 5486 5484
5689 5687 5685 5682 5680 5678 5676 5674 5673 5671 5668 5666 5665 5663 5661 5658 5657 5654 5649 5648 5646 5641 5640 5639 5635 5630 5624 5621 5620 5616 5613 5609 5605 5603 5601 5598 5595 5592 5589 5587 5584 5581 5578 5576 5573 5570 5567 5564 5561 5559 5556 5554 5551 5548 5545 5542 5540 5537 5535 5532 5529 5526 5524 5521 5518 5515 5513 5510 5508 5506 5504 5502 5499 5497 5495 5493 5491 5489 5487 5485 5483 5481 5480 5478 5476 5474
5687 5685 5683 5680 5678 5676 5674 5672 5670 5668 5666 5663 5661 5659 5658 5655 5653 5650 5646 5644 5642 5639 5637 5636 5633 5628 5623 5620 5617 5612 5608 5604 5601 5598 5595 5592 5590 5586 5584 5581 5578 5576 5573 5570 5567 5564 5561 5558 5555 5552 5549 5546 5544 5541 5538 5534 5532 5529 5526 5523 5520 5517 5515 5512 5509 5506 5504 5501 5499 5496 5494 5492 5489 5487 5484 5482 5480 5478 5476 5474 5472 5470 5468 5466 5464 5462
5684 5683 5681 5678 5677 5675 5673 5671 5668 5666 5663 5661 5658 5656 5654 5652 5650 5647 5644 5642 5640 5637 5635 5631 5627 5624 5620 5617 5613 5609 5605 5600 5597 5594 5591 5588 5585 5581 5579 5576 5573 5570 5567 5564 5561 5558 5555 5551 5548 5545 5542 5539 5536 5533 5530 5527 5523 5520 5517 5514 5511 5508 5506 5503 5500 5497 5494 5491 5488 5486 5483 5480 5478 5476 5473 5470 5468 5466 5464 5462 5460 5458 5456 5454 5452 5450
5682 5681 5679 5677 5675 5673 5671 5669 5667 5664 5661 5658 5655 5652 5649 5647 5645 5642 5640 5638 5636 5634 5631 5627 5623 5619 5616 5614 5609 5605 5601 5596 5593 5590 5586 5583 5580 5577 5573 5570 5567 5564 5561 5558 5554 5551 5548 5544 5541 5537 5534 5531 5528 5525 5522 5518 5514 5511 5508 5505 5502 5499 5496 5493 5490 5487 5484 5481 5478 5475 5472 5470 5467 5465 5462 5459 5456 5454 5452 5449 5447 5445 5443 5442 5440 5437
5681 5679 5677 5676 5673 5671 5669 5666 5664 5661 5658 5655 5652 5649 5647 5645 5642 5640 5637 5634 5631 5628 5625 5621 5618 5614 5611 5608 5604 5600 5596 5592 5588 5585 5582 5579 5575 5572 5568 5565 5561 5557 5554 5551 5547 5544 5540 5537 5533 5530 5526 5522 5519 5517 5513 5509 5505 5501 5498 5495 5492 5489 5486 5483 5480 5477 5473 5470 5467 5464 5461 5458 5456 5453 5451 5448 5445 5442 5439 5437 5434 5432 5430 5428 5426 5424
5680 5678 5676 5675 5672 5670 5667 5665 5662 5660 5657 5654 5651 5649 5646 5643 5641 5639 5636 5632 5627 5623 5620 5616 5613 5610 5606 5603 5600 5596 5592 5588 5584 5581 5577 5573 5570 5566 5562 5559 5555 5551 5546 5543 5540 5536 5532 5529 5526 5522 5518 5514 5510 5508 5504 5500 5496 5492 5488 5484 5482 5478 5475 5472 5469 5465 5462 5459 5456 5452 5449 5446 5444 5441 5439 5436 5433 5430 5427 5424 5421 5419 5417 5415 5412 5410
5679 5678 5676 5674 5671 5669 5666 5664 5662 5659 5656 5653 5650 5648 5645 5641 5639 5636 5633 5630 5625 5621 5617 5613 5609 5605 5602 5599 5596 5592 5588 5584 5581 5577 5572 5568 5565 5561 5557 5553 5549 5545 5540 5536 5532 5528 5524 5520 5517 5514 5510 5505 5500 5498 5495 5491 5486 5482 5477 5474 5471 5468 5464 5461 5457 5454 5450 5447 5444 5440 5437 5434 5431 5429 5426 5423 5420 5417 5414 5411 5408 5406 5403 5401 5398 5396
5679 5678 5675 5672 5670 5668 5665 5663 5661 5657 5654 5652 5649 5646 5643 5640 5636 5633 5629 5626 5623 5619 5615 5611 5606 5601 5597 5594 5591 5587 5583 5579 5576 5572 5568 5564 5559 5556 5552 5547 5543 5539 5535 5530 5525 5521 5516 5512 5508 5505 5501 5495 5491 5487 5484 5480 5476 5471 5466 5463 5460 5456 5453 5449 5445 5442 5438 5435 5432 5428 5425 5422 5419 5416 5413 5410 5407 5404 5401 5398 5394 5392 5389 5386 5383 5381
5679 5677 5675 5672 5669 5667 5664 5662 5659 5656 5653 5650 5647 5644 5641 5638 5634 5630 5626 5623 5619 5615 5611 5607 5603 5598 5593 5589 5585 5582 5578 5574 5570 5566 5562 5558 5554 5549 5546 5541 5537 5532 5528 5523 5518 5513 5508 5503 5498 5495 5490 5486 5481 5477 5473 5469 5465 5460 5456 5452 5448 5445 5441 5437 5434 5430 5427 5423 5420 5416 5413 5409 5406 5403 5400 5396 5393 5390 5387 5384 5381 5378 5375 5372 5369 5366
5679 5676 5674 5671 5669 5667 5664 5661 5658 5655 5652 5649 5646 5643 5639 5635 5632 5628 5625 5620 5616 5610 5605 5601 5598 5594 5589 5585 5580 5576 5573 5569 5564 5560 5555 5551 5547 5543 5538 5534 5529 5525 5520 5515 5510 5505 5500 5494 5489 5485 5480 5476 5471 5467 5462 5458 5454 5449 5445 5441 5437 5433 5430 5426 5422 5418 5415 5411 5407 5404 5400 5397 5393 5390 5387 5383 5380 5376 5373 5370 5367 5364 5361 5358 5355 5352
5679 5676 5673 5670 5668 5666 5663 5660 5657 5654 5650 5647 5645 5641 5638 5634 5630 5626 5622 5618 5613 5608 5602 5597 5594 5591 5586 5581 5576 5572 5568 5564 5559 5555 5550 5545 5541 5536 5531 5527 5522 5518 5513 5508 5502 5497 5492 5486 5481 5476 5471 5466 5462 5457 5452 5448 5443 5439 5434 5430 5426 5423 5419 5415 5411 5407 5403 5400 5396 5392 5389 5385 5382 5378 5375 5371 5367 5364 5361 5357 5354 5351 5348 5346 5342 5338
5678 5675 5673 5670 5667 5664 5662 5659 5655 5652 5648 5644 5641 5638 5635 5631 5627 5622 5618 5614 5610 5606 5601 5595 5590 5587 5583 5578 5573 5569 5564 5560 5555 5551 5547 5542 5537 5532 5527 5522 5517 5511 5506 5501 5495 5489 5484 5478 5473 5467 5462 5457 5452 5447 5443 5438 5433 5429 5424 5420 5416 5412 5408 5404 5401 5397 5393 5389 5385 5381 5378 5374 5371 5367 5364 5360 5356 5353 5350 5346 5343 5339 5336 5333 5330 5326
5678 5675 5672 5669 5666 5662 5659 5656 5652 5650 5647 5643 5639 5635 5631 5627 5622 5619 5615 5612 5608 5605 5600 5594 5588 5584 5579 5574 5569 5565 5561 5557 5553 5548 5543 5538 5533 5528 5522 5516 5510 5505 5499 5494 5487 5481 5476 5470 5465 5459 5454 5449 5444 5438 5433 5428 5424 5419 5415 5410 5407 5403 5399 5395 5391 5387 5383 5379 5375 5371 5367 5364 5360 5357 5353 5349 5346 5342 5338 5335 5331 5328 5324 5321 5317 5314
5677 5674 5670 5667 5663 5660 5656 5653 5650 5647 5644 5640 5636 5631 5627 5623 5620 5616 5612 5608 5604 5600 5596 5589 5583 5579 5575 5570 5566 5561 5557 5553 5549 5544 5539 5534 5528 5522 5515 5509 5503 5497 5492 5486 5480 5474 5469 5463 5457 5452 5446 5441 5436 5430 5425 5420 5415 5410 5406 5401 5397 5393 5390 5386 5382 5378 5374 5370 5366 5362 5358 5354 5350 5346 5342 5339 5335 5331 5328 5324 5320 5316 5313 5309 5305 5301
5675 5672 5668 5665 5661 5658 5655 5651 5648 5644 5640 5636 5633 5629 5624 5620 5616 5613 5609 5604 5600 5596 5591 5584 5579 5576 5571 5566 5562 5558 5554 5548 5543 5538 5533 5527 5522 5516 5510 5504 5499 5492 5487 5481 5475 5469 5463 5457 5451 5445 5439 5433 5428 5422 5417 5412 5406 5402 5397 5393 5389 5385 5381 5377 5373 5369 5365 5361 5357 5353 5349 5345 5341 5337 5333 5329 5325 5321 5317 5313 5309 5305 5300 5296 5292 5288
5674 5670 5667 5663 5659 5655 5652 5648 5645 5641 5637 5634 5631 5627 5623 5618 5614 5610 5606 5602 5598 5594 5589 5583 5578 5575 5570 5562 5557 5553 5549 5544 5538 5532 5527 5522 5517 5512 5506 5500 5494 5488 5483 5477 5471 5464 5458 5451 5445 5439 5432 5426 5421 5415 5410 5404 5399 5394 5389 5384 5380 5376 5372 5368 5364 5360 5356 5352 5348 5344 5340 5336 5331 5327 5323 5318 5314 5310 5306 5301 5297 5292 5288 5283 5279 5274
5673 5669 5666 5662 5658 5654 5650 5646 5642 5639 5635 5632 5628 5625 5621 5617 5613 5608 5603 5599 5596 5592 5588 5582 5575 5571 5568 5562 5555 5549 5544 5539 5534 5529 5524 5519 5514 5508 5502 5496 5490 5483 5477 5471 5465 5458 5452 5446 5439 5433 5426 5420 5414 5408 5402 5397 5391 5386 5382 5377 5372 5368 5364 5360 5356 5351 5347 5343 5339 5335 5330 5326 5322 5317 5313 5308 5303 5299 5294 5290 5285 5280 5275 5270 5265 5260
5671 5668 5664 5660 5656 5652 5648 5644 5641 5637 5633 5629 5626 5622 5619 5614 5610 5605 5600 5596 5592 5588 5584 5580 5573 5568 5565 5560 5554 5548 5542 5537 5532 5526 5521 5515 5509 5504 5498 5491 5485 5479 5472 5465 5459 5453 5446 5440 5433 5427 5420 5413 5407 5401 5395 5390 5384 5379 5374 5369 5365 5360 5356 5352 5347 5343 5338 5334 5330 5326 5321 5317 5312 5307 5302 5298 5293 5288 5283 5278 5273 5268 5262 5257 5252 5246
5670 5666 5662 5659 5655 5651 5647 5643 5639 5635 5631 5627 5623 5620 5616 5612 5607 5603 5597 5592 5588 5584 5580 5576 5571 5565 5560 5556 5550 5545 5539 5534 5528 5522 5516 5510 5505 5499 5493 5487 5480 5474 5467 5460 5454 5447 5441 5434 5428 5421 5414 5407 5401 5394 5388 5383 5377 5372 5367 5362 5357 5353 5348 5344 5339 5334 5330 5325 5321 5316 5312 5307 5302 5297 5292 5287 5282 5277 5272 5267 5261 5256 5250 5244 5239 5234
5668 5664 5660 5657 5653 5649 5645 5641 5636 5632 5628 5624 5620 5617 5613 5609 5604 5600 5595 5589 5585 5581 5576 5571 5567 5561 5556 5551 5546 5540 5534 5529 5523 5518 5512 5507 5500 5494 5488 5482 5476 5469 5462 5455 5449 5442 5435 5429 5422 5416 5409 5402 5395 5388 5382 5376 5371 5365 5360 5355 5350 5345 5340 5336 5331 5326 5321 5317 5312 5307 5302 5297 5292 5287 5281 5276 5271 5266 5260 5255 5249 5243 5238 5232 5227 5221
5666 5662 5658 5654 5650 5646 5642 5638 5634 5630 5625 5621 5617 5613 5609 5605 5601 5597 5592 5586 5581 5577 5572 5567 5562 5557 5552 5547 5542 5536 5530 5524 5519 5513 5508 5502 5496 5489 5483 5477 5471 5464 5457 5451 5444 5437 5431 5424 5417 5411 5404 5396 5389 5382 5375 5369 5364 5358 5353 5348 5343 5338 5333 5328 5323 5318 5313 5308 5303 5298 5293 5288 5283 5277 5272 5266 5261 5255 5249 5243 5238 5232 5227 5221 5216 5210
5664 5660 5656 5652 5648 5643 5638 5634 5630 5626 5622 5618 5614 5609 5605 5602 5599 5594 5588 5582 5577 5572 5568 5563 5557 5552 5547 5542 5537 5531 5525 5520 5514 5508 5503 5497 5491 5484 5478 5472 5466 5459 5453 5446 5439 5433 5426 5419 5412 5405 5398 5390 5383 5376 5369 5363 5357 5352 5346 5342 5337 5331 5326 5321 5316 5311 5306 5300 5295 5290 5285 5280 5274 5268 5262 5256 5250 5245 5239 5233 5228 5222 5217 5212 5205 5200
5661 5657 5653 5649 5645 5641 5636 5631 5627 5623 5619 5615 5610 5606 5602 5599 5595 5591 5585 5579 5573 5567 5563 5558 5554 5549 5543 5538 5533 5528 5522 5516 5510 5504 5498 5493 5486 5479 5473 5467 5461 5455 5448 5441 5435 5428 5420 5413 5406 5399 5392 5385 5377 5370 5363 5356 5350 5345 5339 5334 5329 5324 5318 5313 5308 5303 5298 5292 5287 5282 5276 5271 5265 5259 5253 5247 5241 5235 5229 5224 5219 5213 5208 5203 5197 5191
5658 5654 5650 5646 5642 5638 5634 5630 5625 5621 5616 5611 5607 5603 5599 5594 5590 5587 5583 5576 5570 5565 5560 5555 5551 5546 5540 5535 5529 5524 5519 5513 5507 5500 5494 5488 5481 5475 5469 5463 5456 5450 5443 5436 5430 5422 5415 5408 5401 5394 5387 5379 5372 5364 5357 5350 5344 5338 5332 5327 5322 5316 5311 5305 5300 5295 5289 5284 5278 5273 5268 5262 5256 5249 5243 5237 5231 5226 5221 5215 5210 5204 5199 5195 5189 5183
5655 5651 5647 5643 5639 5635 5631 5626 5622 5618 5613 5608 5604 5600 5596 5591 5586 5584 5581 5575 5568 5564 5559 5553 5548 5542 5536 5531 5526 5520 5515 5509 5503 5497 5491 5485 5478 5471 5465 5459 5453 5446 5439 5432 5425 5418 5411 5404 5397 5390 5383 5375 5368 5360 5352 5345 5339 5333 5327 5321 5315 5310 5304 5298 5293 5287 5282 5276 5271 5265 5259 5253 5247 5240 5234 5228 5223 5218 5212 5207 5202 5196 5192 5187 5181 5175
5652 5648 5644 5640 5635 5631 5627 5622 5618 5614 5611 5607 5602 5597 5592 5588 5583 5580 5578 5573 5565 5560 5555 5549 5544 5539 5533 5528 5522 5516 5510 5505 5499 5492 5487 5481 5475 5468 5461 5454 5448 5441 5434 5428 5421 5414 5406 5399 5392 5385 5378 5370 5363 5355 5347 5340 5333 5327 5321 5315 5310 5304 5298 5292 5287 5281 5275 5270 5264 5258 5252 5246 5239 5233 5227 5221 5216 5210 5205 5199 5194 5189 5185 5180 5174 5168
5650 5645 5641 5637 5632 5627 5623 5620 5616 5612 5608 5603 5598 5594 5589 5585 5580 5576 5574 5570 5563 5556 5551 5546 5541 5536 5530 5524 5518 5511 5506 5500 5494 5488 5482 5476 5470 5463 5457 5450 5443 5437 5430 5423 5416 5408 5401 5394 5386 5379 5372 5365 5357 5349 5342 5334 5327 5321 5315 5310 5304 5298 5292 5286 5281 5275 5269 5263 5257 5251 5244 5238 5232 5226 5220 5215 5209 5204 5198 5193 5188 5183 5178 5174 5168 5163
5647 5642 5637 5633 5629 5624 5620 5616 5612 5608 5604 5599 5594 5590 5586 5581 5576 5571 5568 5565 5560 5554 5549 5543 5537 5532 5526 5520 5514 5508 5501 5495 5489 5482 5476 5471 5464 5457 5451 5444 5438 5431 5424 5417 5410 5403 5396 5388 5381 5374 5367 5360 5352 5344 5336 5328 5321 5315 5309 5304 5298 5292 5286 5280 5274 5268 5262 5256 5250 5243 5237 5231 5224 5219 5214 5208 5203 5197 5191 5186 5182 5177 5172 5167 5162 5157
5644 5639 5634 5630 5626 5621 5617 5612 5607 5603 5599 5595 5591 5586 5581 5577 5572 5567 5563 5560 5556 5550 5545 5540 5534 5528 5522 5516 5510 5503 5496 5490 5483 5476 5469 5463 5457 5451 5445 5438 5432 5425 5419 5412 5406 5399 5391 5384 5376 5369 5362 5354 5346 5338 5331 5323 5316 5309 5303 5297 5291 5285 5279 5274 5268 5262 5256 5249 5243 5236 5230 5224 5217 5212 5207 5201 5196 5190 5184 5180 5176 5171 5167 5161 5156 5152
5642 5637 5633 5628 5623 5618 5613 5609 5605 5601 5596 5592 5587 5583 5578 5573 5568 5563 5558 5553 5550 5545 5540 5535 5529 5524 5518 5511 5505 5498 5491 5484 5478 5471 5463 5457 5451 5445 5439 5433 5427 5421 5415 5408 5402 5395 5387 5379 5372 5364 5357 5350 5342 5334 5326 5319 5311 5304 5298 5292 5286 5280 5274 5268 5261 5255 5249 5243 5236 5230 5223 5217 5211 5205 5200 5195 5190 5184 5178 5173 5170 5166 5161 5156 5151 5147
5638 5634 5630 5625 5621 5616 5611 5606 5602 5598 5593 5588 5584 5579 5574 5570 5566 5561 5554 5549 5545 5540 5535 5530 5524 5519 5513 5507 5500 5495 5488 5480 5474 5468 5461 5454 5448 5442 5435 5429 5423 5417 5411 5404 5398 5391 5383 5376 5368 5360 5353 5346 5338 5330 5322 5314 5307 5300 5294 5287 5281 5275 5268 5262 5256 5249 5243 5237 5230 5224 5217 5210 5204 5199 5194 5188 5183 5178 5172 5167 5164 5160 5156 5152 5147 5142
5635 5631 5627 5622 5618 5613 5608 5603 5598 5595 5591 5586 5581 5576 5571 5566 5562 5557 5552 5546 5540 5535 5530 5525 5519 5514 5509 5503 5497 5491 5485 5478 5471 5464 5458 5451 5445 5438 5432 5426 5419 5413 5406 5400 5393 5386 5379 5372 5364 5356 5348 5341 5333 5325 5317 5310 5303 5296 5289 5283 5277 5270 5263 5257 5250 5244 5237 5231 5225 5218 5211 5205 5199 5193 5188 5183 5177 5172 5167 5162 5158 5154 5151 5147 5142 5138
5633 5628 5623 5619 5614 5609 5605 5599 5594 5590 5586 5582 5577 5572 5567 5563 5558 5553 5549 5543 5538 5532 5527 5522 5516 5510 5505 5499 5493 5487 5481 5474 5468 5461 5454 5448 5441 5434 5428 5422 5415 5409 5402 5395 5388 5381 5374 5367 5359 5351 5343 5336 5328 5320 5312 5305 5298 5291 5284 5278 5272 5265 5259 5252 5245 5239 5233 5226 5219 5213 5206 5199 5193 5188 5182 5177 5172 5167 5162 5158 5153 5149 5145 5142 5138 5134
5630 5625 5620 5615 5611 5606 5601 5596 5591 5586 5581 5577 5574 5569 5563 5559 5555 5550 5546 5540 5535 5529 5524 5518 5512 5506 5500 5495 5489 5483 5477 5470 5464 5457 5451 5444 5437 5431 5424 5417 5411 5404 5397 5390 5383 5376 5369 5362 5354 5346 5338 5330 5323 5315 5307 5300 5293 5286 5279 5273 5267 5261 5254 5247 5241 5234 5228 5221 5215 5208 5201 5194 5188 5183 5177 5172 5167 5162 5157 5153 5148 5144 5140 5137 5133 5130
5628 5623 5618 5613 5608 5604 5599 5593 5588 5583 5578 5573 5570 5567 5561 5556 5551 5546 5541 5536 5530 5525 5519 5514 5508 5502 5496 5491 5485 5479 5473 5466 5460 5454 5447 5440 5433 5426 5420 5413 5406 5400 5393 5386 5379 5372 5365 5357 5349 5341 5333 5325 5317 5310 5302 5294 5288 5281 5275 5269 5262 5256 5250 5243 5236 5230 5223 5217 5210 5204 5197 5190 5184 5178 5173 5167 5162 5157 5152 5148 5144 5139 5135 5132 5129 5126
5626 5621 5616 5611 5606 5602 5598 5592 5586 5582 5577 5571 5567 5563 5558 5553 5548 5543 5537 5532 5527 5522 5516 5510 5505 5499 5493 5487 5481 5475 5469 5462 5456 5450 5442 5436 5429 5422 5416 5409 5402 5395 5388 5382 5375 5367 5360 5352 5345 5337 5329 5320 5312 5304 5297 5289 5283 5276 5270 5264 5258 5251 5245 5238 5232 5225 5219 5212 5206 5199 5193 5187 5180 5174 5169 5163 5157 5151 5147 5143 5139 5135 5131 5128 5125 5122
5624 5619 5614 5609 5603 5598 5595 5590 5584 5580 5575 5569 5564 5559 5554 5550 5545 5540 5535 5530 5524 5519 5513 5507 5501 5495 5489 5483 5477 5471 5465 5459 5452 5446 5439 5432 5425 5419 5412 5405 5398 5391 5384 5377 5370 5363 5356 5349 5341 5333 5325 5317 5308 5300 5292 5285 5278 5272 5266 5259 5253 5247 5240 5234 5227 5221 5215 5208 5202 5195 5189 5183 5177 5171 5165 5160 5154 5148 5142 5138 5134 5130 5126 5123 5120 5117
5621 5616 5611 5607 5602 5596 5591 5586 5581 5576 5571 5565 5561 5556 5551 5546 5542 5537 5532 5527 5521 5516 5510 5505 5499 5492 5486 5480 5474 5468 5462 5455 5449 5442 5436 5428 5422 5415 5408 5401 5394 5387 5380 5373 5366 5359 5352 5345 5337 5329 5321 5313 5304 5296 5288 5281 5274 5268 5261 5255 5249 5243 5236 5230 5223 5217 5210 5204 5198 5192 5185 5179 5173 5168 5162 5157 5151 5145 5139 5134 5130 5126 5121 5117 5114 5112
5618 5613 5608 5603 5599 5594 5588 5583 5578 5574 5569 5563 5558 5553 5548 5542 5538 5533 5528 5523 5517 5512 5507 5501 5496 5490 5484 5478 5471 5465 5458 5452 5445 5438 5432 5425 5418 5411 5404 5397 5390 5383 5376 5369 5362 5355 5348 5341 5333 5325 5317 5309 5301 5292 5285 5277 5270 5263 5257 5251 5245 5239 5232 5226 5219 5212 5206 5200 5194 5188 5182 5175 5169 5164 5159 5154 5148 5142 5136 5130 5126 5122 5118 5113 5109 5106
5616 5611 5605 5599 5595 5590 5585 5579 5574 5569 5565 5559 5554 5549 5544 5539 5534 5529 5524 5519 5513 5508 5503 5498 5492 5487 5481 5475 5469 5463 5456 5449 5441 5435 5428 5421 5414 5407 5400 5393 5387 5379 5372 5365 5358 5351 5343 5336 5328 5321 5312 5304 5297 5289 5281 5274 5266 5259 5253 5247 5241 5235 5228 5222 5216 5209 5202 5196 5190 5184 5178 5172 5166 5160 5155 5150 5146 5141 5135 5127 5121 5117 5114 5110 5106 5101
5613 5608 5602 5596 5591 5587 5581 5576 5570 5565 5559 5555 5550 5545 5540 5535 5530 5525 5520 5515 5510 5504 5499 5493 5488 5482 5476 5470 5464 5458 5452 5445 5438 5431 5424 5417 5410 5403 5396 5389 5383 5376 5369 5361 5354 5347 5340 5332 5324 5316 5308 5300 5292 5284 5277 5270 5263 5256 5249 5243 5236 5230 5224 5219 5212 5206 5199 5193 5187 5181 5175 5169 5163 5157 5152 5147 5142 5138 5134 5128 5121 5113 5108 5105 5102 5099